Zurück zum Katalog

SL-19 DEB

AktivUNKNOWN
NORAD 23493·DEBRIS·🇷🇺 Russia

Gestartet Dec 26, 1994 von Baikonur Cosmodrome

Loading…

Nächste Überflüge (nächste 24 Stunden)

TLE

AktuellSource: Space-Track

Epoche: Sep 14, 2026, 13:03 UTC

1 23493U 94085R   26257.54401206  .00000075  00000-0  31847-2 0  9998
2 23493  64.9382  90.7587 0145498 161.3704 229.0307 11.31975294310575

Verfolge SL-19 DEB in Echtzeit mit AllMySat

Download on the App Store